contact:dominique.lefevre@mio.osupytheas.fr, maurice.libes@osupytheas.fr, didier.mallarino@osupytheas.fr
Project:EMSO http://www.emso-fr.org/EMSO-France
Depth: 2436.0 m
Title:EMSO Ligure Ouest : Data MII capteur MICROCAT
DateTime_Computer,Latitude,Longitude,Temperature,Conductivity,Pressure,DateTime_Instrument
DateTime_Computer,Latitude,Longitude,degC,S m-1,dbar,DateTime_Instrument
2021-11-10T00:02:41Z,42.805,6.029,13.2991,4.60014,2470.483,2021-11-10T02:04:06Z
2021-11-10T00:05:44Z,42.805,6.029,13.2994,4.60016,2470.46,2021-11-10T02:07:09Z
2021-11-10T00:08:47Z,42.805,6.029,13.2996,4.60018,2470.483,2021-11-10T02:10:12Z
2021-11-10T00:11:50Z,42.805,6.029,13.2993,4.60016,2470.53,2021-11-10T02:13:15Z
2021-11-10T00:14:53Z,42.805,6.029,13.2993,4.60016,2470.507,2021-11-10T02:16:19Z
2021-11-10T00:17:56Z,42.805,6.029,13.2994,4.60016,2470.483,2021-11-10T02:19:22Z
2021-11-10T00:20:59Z,42.805,6.029,13.2991,4.60016,2470.497,2021-11-10T02:22:25Z
2021-11-10T00:24:02Z,42.805,6.029,13.2996,4.60013,2470.483,2021-11-10T02:25:28Z
2021-11-10T00:27:06Z,42.805,6.029,13.2993,4.60013,2470.483,2021-11-10T02:28:31Z
2021-11-10T00:30:09Z,42.805,6.029,13.2991,4.60016,2470.437,2021-11-10T02:31:34Z
2021-11-10T00:33:12Z,42.805,6.029,13.2992,4.60016,2470.46,2021-11-10T02:34:37Z
2021-11-10T00:36:15Z,42.805,6.029,13.2989,4.60014,2470.483,2021-11-10T02:37:40Z
2021-11-10T00:39:18Z,42.805,6.029,13.2996,4.60016,2470.483,2021-11-10T02:40:44Z
2021-11-10T00:42:21Z,42.805,6.029,13.2995,4.60016,2470.483,2021-11-10T02:43:47Z
2021-11-10T00:45:24Z,42.805,6.029,13.2995,4.60014,2470.507,2021-11-10T02:46:50Z
2021-11-10T00:48:27Z,42.805,6.029,13.2995,4.60019,2470.46,2021-11-10T02:49:53Z
2021-11-10T00:51:31Z,42.805,6.029,13.2996,4.60015,2470.474,2021-11-10T02:52:56Z
2021-11-10T00:54:34Z,42.805,6.029,13.2996,4.60016,2470.52,2021-11-10T02:55:59Z
2021-11-10T00:57:37Z,42.805,6.029,13.2992,4.60013,2470.46,2021-11-10T02:59:02Z
2021-11-10T01:00:40Z,42.805,6.029,13.2995,4.60013,2470.46,2021-11-10T03:02:05Z
2021-11-10T01:03:43Z,42.805,6.029,13.2993,4.60016,2470.46,2021-11-10T03:05:09Z
2021-11-10T01:06:46Z,42.805,6.029,13.2991,4.60015,2470.483,2021-11-10T03:08:12Z
2021-11-10T01:09:49Z,42.805,6.029,13.2993,4.60015,2470.483,2021-11-10T03:11:15Z
2021-11-10T01:12:52Z,42.805,6.029,13.2994,4.60016,2470.46,2021-11-10T03:14:18Z
2021-11-10T01:15:56Z,42.805,6.029,13.2993,4.60014,2470.497,2021-11-10T03:17:21Z
2021-11-10T01:18:59Z,42.805,6.029,13.2993,4.60014,2470.483,2021-11-10T03:20:24Z
2021-11-10T01:22:02Z,42.805,6.029,13.2991,4.60014,2470.474,2021-11-10T03:23:27Z
2021-11-10T01:25:05Z,42.805,6.029,13.2996,4.60014,2470.45,2021-11-10T03:26:30Z
2021-11-10T01:28:08Z,42.805,6.029,13.2995,4.60014,2470.46,2021-11-10T03:29:34Z
2021-11-10T01:31:11Z,42.805,6.029,13.2993,4.60014,2470.46,2021-11-10T03:32:37Z
2021-11-10T01:34:14Z,42.805,6.029,13.2993,4.60014,2470.483,2021-11-10T03:35:40Z
2021-11-10T01:37:17Z,42.805,6.029,13.2993,4.60018,2470.474,2021-11-10T03:38:43Z
2021-11-10T01:40:21Z,42.805,6.029,13.2992,4.60014,2470.46,2021-11-10T03:41:46Z
2021-11-10T01:43:24Z,42.805,6.029,13.2994,4.60016,2470.437,2021-11-10T03:44:49Z
2021-11-10T01:46:27Z,42.805,6.029,13.2993,4.60014,2470.474,2021-11-10T03:47:52Z
2021-11-10T01:49:30Z,42.805,6.029,13.2994,4.60016,2470.437,2021-11-10T03:50:55Z
2021-11-10T01:52:33Z,42.805,6.029,13.2993,4.60016,2470.497,2021-11-10T03:53:59Z
2021-11-10T01:55:36Z,42.805,6.029,13.2994,4.60016,2470.437,2021-11-10T03:57:02Z
2021-11-10T01:58:39Z,42.805,6.029,13.2990,4.60014,2470.483,2021-11-10T04:00:05Z
2021-11-10T02:01:42Z,42.805,6.029,13.2991,4.60014,2470.46,2021-11-10T04:03:08Z
2021-11-10T02:04:46Z,42.805,6.029,13.2996,4.60014,2470.474,2021-11-10T04:06:11Z
2021-11-10T02:07:49Z,42.805,6.029,13.2994,4.60015,2470.437,2021-11-10T04:09:14Z
2021-11-10T02:10:52Z,42.805,6.029,13.2994,4.60014,2470.413,2021-11-10T04:12:17Z
2021-11-10T02:13:55Z,42.805,6.029,13.2994,4.60015,2470.437,2021-11-10T04:15:20Z
2021-11-10T02:16:58Z,42.805,6.029,13.2994,4.60014,2470.46,2021-11-10T04:18:24Z
2021-11-10T02:20:01Z,42.805,6.029,13.2993,4.60013,2470.46,2021-11-10T04:21:27Z
2021-11-10T02:23:04Z,42.805,6.029,13.2998,4.60013,2470.45,2021-11-10T04:24:30Z
2021-11-10T02:26:07Z,42.805,6.029,13.2994,4.60013,2470.46,2021-11-10T04:27:33Z
2021-11-10T02:29:11Z,42.805,6.029,13.2993,4.60013,2470.437,2021-11-10T04:30:36Z
2021-11-10T02:32:14Z,42.805,6.029,13.2996,4.60014,2470.46,2021-11-10T04:33:39Z
2021-11-10T02:35:17Z,42.805,6.029,13.2993,4.60014,2470.45,2021-11-10T04:36:42Z
2021-11-10T02:38:20Z,42.805,6.029,13.2991,4.60014,2470.45,2021-11-10T04:39:45Z
2021-11-10T02:41:23Z,42.805,6.029,13.2993,4.60014,2470.46,2021-11-10T04:42:49Z
2021-11-10T02:44:26Z,42.805,6.029,13.2996,4.60015,2470.474,2021-11-10T04:45:52Z
2021-11-10T02:47:29Z,42.805,6.029,13.2993,4.60015,2470.437,2021-11-10T04:48:55Z
2021-11-10T02:50:32Z,42.805,6.029,13.2993,4.60014,2470.46,2021-11-10T04:51:58Z
2021-11-10T02:53:36Z,42.805,6.029,13.2995,4.60015,2470.46,2021-11-10T04:55:01Z
2021-11-10T02:56:39Z,42.805,6.029,13.2994,4.60014,2470.437,2021-11-10T04:58:04Z
2021-11-10T02:59:42Z,42.805,6.029,13.2998,4.60014,2470.437,2021-11-10T05:01:07Z
2021-11-10T03:02:45Z,42.805,6.029,13.2995,4.60013,2470.46,2021-11-10T05:04:10Z
2021-11-10T03:05:48Z,42.805,6.029,13.2991,4.60014,2470.437,2021-11-10T05:07:14Z
2021-11-10T03:08:51Z,42.805,6.029,13.2997,4.60013,2470.45,2021-11-10T05:10:17Z
2021-11-10T03:11:54Z,42.805,6.029,13.2997,4.60015,2470.437,2021-11-10T05:13:20Z
2021-11-10T03:14:57Z,42.805,6.029,13.2992,4.60012,2470.427,2021-11-10T05:16:23Z
2021-11-10T03:18:00Z,42.805,6.029,13.2996,4.60015,2470.46,2021-11-10T05:19:26Z
2021-11-10T03:21:04Z,42.805,6.029,13.2995,4.60014,2470.437,2021-11-10T05:22:29Z
2021-11-10T03:24:07Z,42.805,6.029,13.2994,4.60015,2470.437,2021-11-10T05:25:32Z
2021-11-10T03:27:10Z,42.805,6.029,13.2997,4.60012,2470.497,2021-11-10T05:28:35Z
2021-11-10T03:30:13Z,42.805,6.029,13.2996,4.60020,2470.45,2021-11-10T05:31:39Z
2021-11-10T03:33:16Z,42.805,6.029,13.2993,4.60015,2470.46,2021-11-10T05:34:42Z
2021-11-10T03:36:19Z,42.805,6.029,13.2996,4.60013,2470.474,2021-11-10T05:37:45Z
2021-11-10T03:39:22Z,42.805,6.029,13.2993,4.60013,2470.413,2021-11-10T05:40:48Z
2021-11-10T03:42:25Z,42.805,6.029,13.2997,4.60014,2470.474,2021-11-10T05:43:51Z
2021-11-10T03:45:29Z,42.805,6.029,13.2993,4.60013,2470.474,2021-11-10T05:46:54Z
2021-11-10T03:48:32Z,42.805,6.029,13.2991,4.60014,2470.413,2021-11-10T05:49:57Z
2021-11-10T03:51:35Z,42.805,6.029,13.2991,4.60013,2470.46,2021-11-10T05:53:00Z
2021-11-10T03:54:38Z,42.805,6.029,13.2997,4.60016,2470.474,2021-11-10T05:56:04Z
2021-11-10T03:57:41Z,42.805,6.029,13.2996,4.60014,2470.404,2021-11-10T05:59:07Z
2021-11-10T04:00:44Z,42.805,6.029,13.2993,4.60015,2470.45,2021-11-10T06:02:10Z
2021-11-10T04:03:47Z,42.805,6.029,13.2997,4.60014,2470.437,2021-11-10T06:05:13Z
2021-11-10T04:06:50Z,42.805,6.029,13.2996,4.60016,2470.427,2021-11-10T06:08:16Z
2021-11-10T04:09:54Z,42.805,6.029,13.2998,4.60016,2470.413,2021-11-10T06:11:19Z
2021-11-10T04:12:57Z,42.805,6.029,13.2994,4.60014,2470.437,2021-11-10T06:14:22Z
2021-11-10T04:16:00Z,42.805,6.029,13.2994,4.60015,2470.45,2021-11-10T06:17:25Z
2021-11-10T04:19:03Z,42.805,6.029,13.2990,4.60015,2470.404,2021-11-10T06:20:28Z
2021-11-10T04:22:06Z,42.805,6.029,13.2994,4.60013,2470.437,2021-11-10T06:23:32Z
2021-11-10T04:25:09Z,42.805,6.029,13.2996,4.60014,2470.437,2021-11-10T06:26:35Z
2021-11-10T04:28:12Z,42.805,6.029,13.2994,4.60016,2470.39,2021-11-10T06:29:38Z
2021-11-10T04:31:15Z,42.805,6.029,13.2997,4.60017,2470.437,2021-11-10T06:32:41Z
2021-11-10T04:34:19Z,42.805,6.029,13.2993,4.60015,2470.46,2021-11-10T06:35:44Z
2021-11-10T04:37:22Z,42.805,6.029,13.2993,4.60014,2470.427,2021-11-10T06:38:47Z
2021-11-10T04:40:25Z,42.805,6.029,13.2994,4.60014,2470.413,2021-11-10T06:41:50Z
2021-11-10T04:43:28Z,42.805,6.029,13.2993,4.60013,2470.437,2021-11-10T06:44:53Z
2021-11-10T04:46:31Z,42.805,6.029,13.2993,4.60012,2470.427,2021-11-10T06:47:57Z
2021-11-10T04:49:34Z,42.805,6.029,13.2992,4.60012,2470.427,2021-11-10T06:51:00Z
2021-11-10T04:52:37Z,42.805,6.029,13.2991,4.60012,2470.437,2021-11-10T06:54:03Z
2021-11-10T04:55:40Z,42.805,6.029,13.2995,4.60014,2470.404,2021-11-10T06:57:06Z
2021-11-10T04:58:43Z,42.805,6.029,13.2993,4.60011,2470.39,2021-11-10T07:00:09Z
2021-11-10T05:01:47Z,42.805,6.029,13.2991,4.60017,2470.413,2021-11-10T07:03:12Z
2021-11-10T05:04:50Z,42.805,6.029,13.2991,4.60014,2470.413,2021-11-10T07:06:15Z
2021-11-10T05:07:53Z,42.805,6.029,13.2994,4.60011,2470.413,2021-11-10T07:09:18Z
2021-11-10T05:10:56Z,42.805,6.029,13.2997,4.60011,2470.413,2021-11-10T07:12:22Z
2021-11-10T05:13:59Z,42.805,6.029,13.2991,4.60011,2470.413,2021-11-10T07:15:25Z
2021-11-10T05:17:02Z,42.805,6.029,13.2994,4.60012,2470.413,2021-11-10T07:18:28Z
2021-11-10T05:20:05Z,42.805,6.029,13.2994,4.60013,2470.404,2021-11-10T07:21:31Z
2021-11-10T05:23:08Z,42.805,6.029,13.2994,4.60012,2470.404,2021-11-10T07:24:34Z
2021-11-10T05:26:12Z,42.805,6.029,13.2993,4.60013,2470.427,2021-11-10T07:27:37Z
2021-11-10T05:29:15Z,42.805,6.029,13.2992,4.60013,2470.39,2021-11-10T07:30:40Z
2021-11-10T05:32:18Z,42.805,6.029,13.2996,4.60013,2470.39,2021-11-10T07:33:43Z
2021-11-10T05:35:21Z,42.805,6.029,13.2994,4.60011,2470.417,2021-11-10T07:36:47Z
2021-11-10T05:38:24Z,42.805,6.029,13.2993,4.60011,2470.427,2021-11-10T07:39:50Z
2021-11-10T05:41:27Z,42.805,6.029,13.2993,4.60011,2470.413,2021-11-10T07:42:53Z
2021-11-10T05:44:30Z,42.805,6.029,13.2996,4.60014,2470.413,2021-11-10T07:45:56Z
2021-11-10T05:47:33Z,42.805,6.029,13.2995,4.60011,2470.427,2021-11-10T07:48:59Z
2021-11-10T05:50:37Z,42.805,6.029,13.2995,4.60014,2470.437,2021-11-10T07:52:02Z
2021-11-10T05:53:40Z,42.805,6.029,13.2992,4.60013,2470.413,2021-11-10T07:55:05Z
2021-11-10T05:56:43Z,42.805,6.029,13.2996,4.60014,2470.45,2021-11-10T07:58:08Z
2021-11-10T05:59:46Z,42.805,6.029,13.2993,4.60011,2470.404,2021-11-10T08:01:12Z
2021-11-10T06:02:49Z,42.805,6.029,13.2997,4.60011,2470.437,2021-11-10T08:04:15Z
2021-11-10T06:05:52Z,42.805,6.029,13.2994,4.60011,2470.427,2021-11-10T08:07:18Z
2021-11-10T06:08:55Z,42.805,6.029,13.2991,4.60013,2470.39,2021-11-10T08:10:21Z
2021-11-10T06:11:58Z,42.805,6.029,13.2993,4.60011,2470.427,2021-11-10T08:13:24Z
2021-11-10T06:15:02Z,42.805,6.029,13.2993,4.60011,2470.413,2021-11-10T08:16:27Z
2021-11-10T06:18:05Z,42.805,6.029,13.2996,4.60014,2470.413,2021-11-10T08:19:30Z
2021-11-10T06:21:08Z,42.805,6.029,13.2996,4.60013,2470.437,2021-11-10T08:22:33Z
2021-11-10T06:24:11Z,42.805,6.029,13.2996,4.60011,2470.39,2021-11-10T08:25:37Z
2021-11-10T06:27:14Z,42.805,6.029,13.2991,4.60011,2470.437,2021-11-10T08:28:40Z
2021-11-10T06:30:17Z,42.805,6.029,13.2993,4.60011,2470.45,2021-11-10T08:31:43Z
2021-11-10T06:33:20Z,42.805,6.029,13.2993,4.60011,2470.46,2021-11-10T08:34:46Z
2021-11-10T06:36:23Z,42.805,6.029,13.2992,4.60013,2470.437,2021-11-10T08:37:49Z
2021-11-10T06:39:27Z,42.805,6.029,13.2991,4.60014,2470.437,2021-11-10T08:40:52Z
2021-11-10T06:42:30Z,42.805,6.029,13.2989,4.60012,2470.427,2021-11-10T08:43:55Z
2021-11-10T06:45:33Z,42.805,6.029,13.2993,4.60011,2470.404,2021-11-10T08:46:58Z
2021-11-10T06:48:36Z,42.805,6.029,13.2993,4.60011,2470.474,2021-11-10T08:50:01Z
2021-11-10T06:51:39Z,42.805,6.029,13.2995,4.60011,2470.45,2021-11-10T08:53:05Z
2021-11-10T06:54:42Z,42.805,6.029,13.2992,4.60011,2470.437,2021-11-10T08:56:08Z
2021-11-10T06:57:45Z,42.805,6.029,13.2993,4.60011,2470.437,2021-11-10T08:59:11Z
2021-11-10T07:00:48Z,42.805,6.029,13.2990,4.60011,2470.437,2021-11-10T09:02:14Z
2021-11-10T07:03:52Z,42.805,6.029,13.2993,4.60011,2470.427,2021-11-10T09:05:17Z
2021-11-10T07:06:55Z,42.805,6.029,13.2991,4.60011,2470.45,2021-11-10T09:08:20Z
2021-11-10T07:09:58Z,42.805,6.029,13.2991,4.60011,2470.437,2021-11-10T09:11:23Z
2021-11-10T07:13:01Z,42.805,6.029,13.2991,4.60013,2470.497,2021-11-10T09:14:26Z
2021-11-10T07:16:04Z,42.805,6.029,13.2995,4.60013,2470.474,2021-11-10T09:17:30Z
2021-11-10T07:19:07Z,42.805,6.029,13.2994,4.60013,2470.46,2021-11-10T09:20:33Z
2021-11-10T07:22:10Z,42.805,6.029,13.2992,4.60011,2470.437,2021-11-10T09:23:36Z
2021-11-10T07:25:13Z,42.805,6.029,13.2998,4.60012,2470.483,2021-11-10T09:26:39Z
2021-11-10T07:28:17Z,42.805,6.029,13.2995,4.60011,2470.46,2021-11-10T09:29:42Z
2021-11-10T07:31:20Z,42.805,6.029,13.2995,4.60011,2470.483,2021-11-10T09:32:45Z
2021-11-10T07:34:23Z,42.805,6.029,13.2994,4.60011,2470.474,2021-11-10T09:35:48Z
2021-11-10T07:37:26Z,42.805,6.029,13.2996,4.60010,2470.497,2021-11-10T09:38:51Z
2021-11-10T07:40:29Z,42.805,6.029,13.2991,4.60010,2470.46,2021-11-10T09:41:55Z
2021-11-10T07:43:32Z,42.805,6.029,13.2990,4.60009,2470.507,2021-11-10T09:44:58Z
2021-11-10T07:46:35Z,42.805,6.029,13.2993,4.60010,2470.45,2021-11-10T09:48:01Z
2021-11-10T07:49:38Z,42.805,6.029,13.2991,4.60010,2470.483,2021-11-10T09:51:04Z
2021-11-10T07:52:42Z,42.805,6.029,13.2992,4.60009,2470.52,2021-11-10T09:54:07Z
2021-11-10T07:55:45Z,42.805,6.029,13.2991,4.60009,2470.507,2021-11-10T09:57:10Z
2021-11-10T07:58:48Z,42.805,6.029,13.2991,4.60010,2470.483,2021-11-10T10:00:13Z
2021-11-10T08:01:51Z,42.805,6.029,13.2990,4.60011,2470.483,2021-11-10T10:03:16Z
2021-11-10T08:04:54Z,42.805,6.029,13.2990,4.60009,2470.483,2021-11-10T10:06:20Z
2021-11-10T08:07:57Z,42.805,6.029,13.2991,4.60010,2470.53,2021-11-10T10:09:23Z
2021-11-10T08:11:00Z,42.805,6.029,13.2992,4.60011,2470.507,2021-11-10T10:12:26Z
2021-11-10T08:14:03Z,42.805,6.029,13.2996,4.60013,2470.52,2021-11-10T10:15:29Z
2021-11-10T08:17:07Z,42.805,6.029,13.2992,4.60010,2470.483,2021-11-10T10:18:32Z
2021-11-10T08:20:10Z,42.805,6.029,13.2993,4.60012,2470.483,2021-11-10T10:21:35Z
2021-11-10T08:23:13Z,42.805,6.029,13.2989,4.60011,2470.46,2021-11-10T10:24:38Z
2021-11-10T08:26:16Z,42.805,6.029,13.2989,4.60010,2470.507,2021-11-10T10:27:42Z
2021-11-10T08:29:19Z,42.805,6.029,13.2990,4.60010,2470.53,2021-11-10T10:30:45Z
2021-11-10T08:32:22Z,42.805,6.029,13.2993,4.60010,2470.53,2021-11-10T10:33:48Z
2021-11-10T08:35:25Z,42.805,6.029,13.2995,4.60011,2470.507,2021-11-10T10:36:51Z
2021-11-10T08:38:29Z,42.805,6.029,13.2996,4.60009,2470.567,2021-11-10T10:39:54Z
2021-11-10T08:41:32Z,42.805,6.029,13.2998,4.60011,2470.53,2021-11-10T10:42:57Z
2021-11-10T08:44:35Z,42.805,6.029,13.2994,4.60009,2470.544,2021-11-10T10:46:00Z
2021-11-10T08:47:38Z,42.805,6.029,13.2991,4.60010,2470.567,2021-11-10T10:49:03Z
2021-11-10T08:50:41Z,42.805,6.029,13.2991,4.60009,2470.591,2021-11-10T10:52:07Z
2021-11-10T08:53:44Z,42.805,6.029,13.2993,4.60011,2470.52,2021-11-10T10:55:10Z
2021-11-10T08:56:47Z,42.805,6.029,13.2992,4.60011,2470.53,2021-11-10T10:58:13Z
2021-11-10T08:59:50Z,42.805,6.029,13.2991,4.60011,2470.53,2021-11-10T11:01:16Z
2021-11-10T09:02:54Z,42.805,6.029,13.2991,4.60016,2470.553,2021-11-10T11:04:19Z
2021-11-10T09:05:57Z,42.805,6.029,13.2990,4.60010,2470.544,2021-11-10T11:07:22Z
2021-11-10T09:09:00Z,42.805,6.029,13.2992,4.60009,2470.53,2021-11-10T11:10:25Z
2021-11-10T09:12:03Z,42.805,6.029,13.2990,4.60011,2470.567,2021-11-10T11:13:28Z
2021-11-10T09:15:06Z,42.805,6.029,13.2993,4.60010,2470.577,2021-11-10T11:16:32Z
2021-11-10T09:18:09Z,42.805,6.029,13.2990,4.60010,2470.567,2021-11-10T11:19:35Z
2021-11-10T09:21:12Z,42.805,6.029,13.2991,4.60009,2470.553,2021-11-10T11:22:38Z
2021-11-10T09:24:15Z,42.805,6.029,13.2994,4.60011,2470.567,2021-11-10T11:25:41Z
2021-11-10T09:27:19Z,42.805,6.029,13.2987,4.60009,2470.553,2021-11-10T11:28:44Z
2021-11-10T09:30:22Z,42.805,6.029,13.2993,4.60011,2470.591,2021-11-10T11:31:47Z
2021-11-10T09:33:25Z,42.805,6.029,13.2993,4.60010,2470.577,2021-11-10T11:34:50Z
2021-11-10T09:36:28Z,42.805,6.029,13.2991,4.60009,2470.553,2021-11-10T11:37:53Z
2021-11-10T09:39:31Z,42.805,6.029,13.2991,4.60011,2470.591,2021-11-10T11:40:57Z
2021-11-10T09:42:34Z,42.805,6.029,13.2991,4.60009,2470.591,2021-11-10T11:44:00Z
2021-11-10T09:45:37Z,42.805,6.029,13.2987,4.60009,2470.624,2021-11-10T11:47:03Z
2021-11-10T09:48:40Z,42.805,6.029,13.2990,4.60009,2470.577,2021-11-10T11:50:06Z
2021-11-10T09:51:44Z,42.805,6.029,13.2989,4.60009,2470.591,2021-11-10T11:53:09Z
2021-11-10T09:54:47Z,42.805,6.029,13.2989,4.60016,2470.553,2021-11-10T11:56:12Z
2021-11-10T09:57:50Z,42.805,6.029,13.2991,4.60009,2470.577,2021-11-10T11:59:15Z
2021-11-10T10:00:53Z,42.805,6.029,13.2992,4.60009,2470.6,2021-11-10T12:02:19Z
2021-11-10T10:03:56Z,42.805,6.029,13.2990,4.60014,2470.6,2021-11-10T12:05:22Z
2021-11-10T10:06:59Z,42.805,6.029,13.2993,4.60009,2470.577,2021-11-10T12:08:25Z
2021-11-10T10:10:02Z,42.805,6.029,13.2991,4.60009,2470.624,2021-11-10T12:11:28Z
2021-11-10T10:13:05Z,42.805,6.029,13.2989,4.60010,2470.591,2021-11-10T12:14:31Z
2021-11-10T10:16:09Z,42.805,6.029,13.2996,4.60009,2470.577,2021-11-10T12:17:34Z
2021-11-10T10:19:12Z,42.805,6.029,13.2991,4.60011,2470.577,2021-11-10T12:20:37Z
2021-11-10T10:22:15Z,42.805,6.029,13.2993,4.60010,2470.6,2021-11-10T12:23:40Z
2021-11-10T10:25:18Z,42.805,6.029,13.2991,4.60011,2470.624,2021-11-10T12:26:44Z
2021-11-10T10:28:21Z,42.805,6.029,13.2993,4.60009,2470.6,2021-11-10T12:29:47Z
2021-11-10T10:31:24Z,42.805,6.029,13.2993,4.60011,2470.577,2021-11-10T12:32:50Z
2021-11-10T10:34:27Z,42.805,6.029,13.2989,4.60009,2470.624,2021-11-10T12:35:53Z
2021-11-10T10:37:30Z,42.805,6.029,13.2994,4.60010,2470.624,2021-11-10T12:38:56Z
2021-11-10T10:40:34Z,42.805,6.029,13.2991,4.60011,2470.614,2021-11-10T12:41:59Z
2021-11-10T10:43:37Z,42.805,6.029,13.2996,4.60009,2470.6,2021-11-10T12:45:02Z
2021-11-10T10:46:40Z,42.805,6.029,13.2992,4.60009,2470.591,2021-11-10T12:48:05Z
2021-11-10T10:49:43Z,42.805,6.029,13.2991,4.60011,2470.61,2021-11-10T12:51:09Z
2021-11-10T10:52:46Z,42.805,6.029,13.2988,4.60009,2470.591,2021-11-10T12:54:12Z
2021-11-10T10:55:49Z,42.805,6.029,13.2993,4.60009,2470.6,2021-11-10T12:57:15Z
2021-11-10T10:58:52Z,42.805,6.029,13.2994,4.60010,2470.6,2021-11-10T13:00:18Z
2021-11-10T11:01:55Z,42.805,6.029,13.2993,4.60010,2470.6,2021-11-10T13:03:21Z
2021-11-10T11:04:59Z,42.805,6.029,13.2995,4.60009,2470.6,2021-11-10T13:06:24Z
2021-11-10T11:08:02Z,42.805,6.029,13.2992,4.60011,2470.6,2021-11-10T13:09:27Z
2021-11-10T11:11:05Z,42.805,6.029,13.2990,4.60009,2470.6,2021-11-10T13:12:30Z
2021-11-10T11:14:08Z,42.805,6.029,13.2989,4.60009,2470.6,2021-11-10T13:15:34Z
2021-11-10T11:17:11Z,42.805,6.029,13.2991,4.60009,2470.577,2021-11-10T13:18:37Z
2021-11-10T11:20:14Z,42.805,6.029,13.2990,4.60009,2470.637,2021-11-10T13:21:40Z
2021-11-10T11:23:17Z,42.805,6.029,13.2996,4.60009,2470.6,2021-11-10T13:24:43Z
2021-11-10T11:26:21Z,42.805,6.029,13.2991,4.60009,2470.6,2021-11-10T13:27:46Z
2021-11-10T11:29:24Z,42.805,6.029,13.2993,4.60010,2470.577,2021-11-10T13:30:49Z
2021-11-10T11:32:27Z,42.805,6.029,13.2991,4.60010,2470.637,2021-11-10T13:33:52Z
2021-11-10T11:35:30Z,42.805,6.029,13.2990,4.60010,2470.637,2021-11-10T13:36:55Z
2021-11-10T11:38:33Z,42.805,6.029,13.2993,4.60009,2470.614,2021-11-10T13:39:59Z
2021-11-10T11:41:36Z,42.805,6.029,13.2993,4.60014,2470.624,2021-11-10T13:43:02Z
2021-11-10T11:44:39Z,42.805,6.029,13.2996,4.60016,2470.624,2021-11-10T13:46:05Z
2021-11-10T11:47:42Z,42.805,6.029,13.2993,4.60009,2470.6,2021-11-10T13:49:08Z
2021-11-10T11:50:46Z,42.805,6.029,13.2991,4.60014,2470.661,2021-11-10T13:52:11Z
2021-11-10T11:53:49Z,42.805,6.029,13.2989,4.60011,2470.577,2021-11-10T13:55:14Z
2021-11-10T11:56:52Z,42.805,6.029,13.2993,4.60009,2470.637,2021-11-10T13:58:17Z
2021-11-10T11:59:55Z,42.805,6.029,13.2993,4.60009,2470.624,2021-11-10T14:01:20Z
2021-11-10T12:02:58Z,42.805,6.029,13.2991,4.60012,2470.614,2021-11-10T14:04:24Z
2021-11-10T12:06:01Z,42.805,6.029,13.2994,4.60011,2470.614,2021-11-10T14:07:27Z
2021-11-10T12:09:04Z,42.805,6.029,13.2996,4.60010,2470.637,2021-11-10T14:10:30Z
2021-11-10T12:12:07Z,42.805,6.029,13.2994,4.60010,2470.624,2021-11-10T14:13:33Z
2021-11-10T12:15:11Z,42.805,6.029,13.2992,4.60010,2470.637,2021-11-10T14:16:36Z
2021-11-10T12:18:14Z,42.805,6.029,13.2993,4.60009,2470.624,2021-11-10T14:19:39Z
2021-11-10T12:21:17Z,42.805,6.029,13.2991,4.60009,2470.61,2021-11-10T14:22:42Z
2021-11-10T12:24:20Z,42.805,6.029,13.2993,4.60011,2470.577,2021-11-10T14:25:46Z
2021-11-10T12:27:23Z,42.805,6.029,13.2992,4.60010,2470.614,2021-11-10T14:28:49Z
2021-11-10T12:30:26Z,42.805,6.029,13.2993,4.60009,2470.614,2021-11-10T14:31:52Z
2021-11-10T12:33:29Z,42.805,6.029,13.2990,4.60009,2470.6,2021-11-10T14:34:55Z
2021-11-10T12:36:32Z,42.805,6.029,13.2991,4.60009,2470.6,2021-11-10T14:37:58Z
2021-11-10T12:39:36Z,42.805,6.029,13.2996,4.60009,2470.567,2021-11-10T14:41:01Z
2021-11-10T12:42:39Z,42.805,6.029,13.2993,4.60009,2470.6,2021-11-10T14:44:04Z
2021-11-10T12:45:42Z,42.805,6.029,13.2994,4.60009,2470.6,2021-11-10T14:47:07Z
2021-11-10T12:48:45Z,42.805,6.029,13.2988,4.60011,2470.6,2021-11-10T14:50:11Z
2021-11-10T12:51:48Z,42.805,6.029,13.2990,4.60009,2470.591,2021-11-10T14:53:14Z
2021-11-10T12:54:51Z,42.805,6.029,13.2988,4.60011,2470.637,2021-11-10T14:56:17Z
2021-11-10T12:57:54Z,42.805,6.029,13.2994,4.60010,2470.6,2021-11-10T14:59:20Z
2021-11-10T13:00:58Z,42.805,6.029,13.2990,4.60010,2470.614,2021-11-10T15:02:23Z
2021-11-10T13:04:01Z,42.805,6.029,13.2993,4.60011,2470.614,2021-11-10T15:05:26Z
2021-11-10T13:07:04Z,42.805,6.029,13.2990,4.60014,2470.6,2021-11-10T15:08:29Z
2021-11-10T13:10:07Z,42.805,6.029,13.2990,4.60011,2470.6,2021-11-10T15:11:32Z
2021-11-10T13:13:10Z,42.805,6.029,13.2991,4.60010,2470.6,2021-11-10T15:14:36Z
2021-11-10T13:16:13Z,42.805,6.029,13.2993,4.60010,2470.591,2021-11-10T15:17:39Z
2021-11-10T13:19:16Z,42.805,6.029,13.2995,4.60011,2470.614,2021-11-10T15:20:42Z
2021-11-10T13:22:19Z,42.805,6.029,13.2991,4.60011,2470.577,2021-11-10T15:23:45Z
2021-11-10T13:25:23Z,42.805,6.029,13.2996,4.60011,2470.637,2021-11-10T15:26:48Z
2021-11-10T13:28:26Z,42.805,6.029,13.2992,4.60011,2470.577,2021-11-10T15:29:51Z
2021-11-10T13:31:29Z,42.805,6.029,13.2991,4.60011,2470.577,2021-11-10T15:32:54Z
2021-11-10T13:34:32Z,42.805,6.029,13.2990,4.60010,2470.6,2021-11-10T15:35:57Z
2021-11-10T13:37:35Z,42.805,6.029,13.2993,4.60011,2470.6,2021-11-10T15:39:01Z
2021-11-10T13:40:38Z,42.805,6.029,13.2992,4.60011,2470.591,2021-11-10T15:42:04Z
2021-11-10T13:43:41Z,42.805,6.029,13.2991,4.60011,2470.614,2021-11-10T15:45:07Z
2021-11-10T13:46:44Z,42.805,6.029,13.2991,4.60011,2470.577,2021-11-10T15:48:10Z
2021-11-10T13:49:48Z,42.805,6.029,13.2991,4.60010,2470.591,2021-11-10T15:51:13Z
2021-11-10T13:52:51Z,42.805,6.029,13.2991,4.60009,2470.591,2021-11-10T15:54:16Z
2021-11-10T13:55:54Z,42.805,6.029,13.2993,4.60009,2470.591,2021-11-10T15:57:19Z
2021-11-10T13:58:57Z,42.805,6.029,13.2990,4.60014,2470.577,2021-11-10T16:00:23Z
2021-11-10T14:02:00Z,42.805,6.029,13.2991,4.60010,2470.614,2021-11-10T16:03:26Z
2021-11-10T14:05:03Z,42.805,6.029,13.2993,4.60009,2470.591,2021-11-10T16:06:29Z
2021-11-10T14:08:06Z,42.805,6.029,13.2989,4.60009,2470.577,2021-11-10T16:09:32Z
2021-11-10T14:11:09Z,42.805,6.029,13.2993,4.60010,2470.507,2021-11-10T16:12:35Z
2021-11-10T14:14:13Z,42.805,6.029,13.2988,4.60009,2470.567,2021-11-10T16:15:38Z
2021-11-10T14:17:16Z,42.805,6.029,13.2991,4.60012,2470.577,2021-11-10T16:18:41Z
2021-11-10T14:20:19Z,42.805,6.029,13.2991,4.60009,2470.53,2021-11-10T16:21:44Z
2021-11-10T14:23:22Z,42.805,6.029,13.2993,4.60014,2470.553,2021-11-10T16:24:48Z
2021-11-10T14:26:25Z,42.805,6.029,13.2990,4.60011,2470.577,2021-11-10T16:27:51Z
2021-11-10T14:29:28Z,42.805,6.029,13.2991,4.60010,2470.577,2021-11-10T16:30:54Z
2021-11-10T14:32:31Z,42.805,6.029,13.2991,4.60014,2470.553,2021-11-10T16:33:57Z
2021-11-10T14:35:34Z,42.805,6.029,13.2994,4.60013,2470.591,2021-11-10T16:37:00Z
2021-11-10T14:38:38Z,42.805,6.029,13.2993,4.60011,2470.553,2021-11-10T16:40:03Z
2021-11-10T14:41:41Z,42.805,6.029,13.2991,4.60012,2470.577,2021-11-10T16:43:06Z
2021-11-10T14:44:44Z,42.805,6.029,13.2990,4.60011,2470.553,2021-11-10T16:46:09Z
2021-11-10T14:47:47Z,42.805,6.029,13.2991,4.60014,2470.567,2021-11-10T16:49:13Z
2021-11-10T14:50:50Z,42.805,6.029,13.2991,4.60011,2470.591,2021-11-10T16:52:16Z
2021-11-10T14:53:53Z,42.805,6.029,13.2990,4.60016,2470.553,2021-11-10T16:55:19Z
2021-11-10T14:56:56Z,42.805,6.029,13.2992,4.60011,2470.553,2021-11-10T16:58:22Z
2021-11-10T14:59:59Z,42.805,6.029,13.2993,4.60012,2470.553,2021-11-10T17:01:25Z
2021-11-10T15:03:03Z,42.805,6.029,13.2991,4.60010,2470.553,2021-11-10T17:04:28Z